Weather History for Rocky Mount, NC

Change the Weather History Date:

Sunday, September 22, 2013

  Actual Average Record
Temperature  
Mean Temperature 70 °F -  
Max Temperature 79 °F 81 °F 94 °F (1970)
Min Temperature 60 °F 59 °F 44 °F (1956)
Cooling Degree Days 5    
Growing Degree Days 20 (Base 50)    
Moisture  
Dew Point 64 °F    
Average Humidity 84    
Maximum Humidity 100    
Minimum Humidity 48    
Precipitation  
Precipitation 0.73 in - - ()
Sea Level Pressure  
Sea Level Pressure 29.77 in    
Wind  
Wind Speed 6 mph (NNE)    
Max Wind Speed 17 mph    
Max Gust Speed 24 mph    
Visibility 8 miles    
Events Rain    
Averages and records for this station are not official NWS values.
T = Trace of Precipitation, MM = Missing Value Source: NWS Daily Summary

Daily Weather History Graph

Daily Weather History Graph

Search for Another Location

Airport:

Trip Planner

Search our weather history database for the weather conditions in past years. The results will help you decide how hot, cold, wet, or windy it might be!

Date:

Astronomy

Sep. 22, 2013 Rise Set
Actual Time 6:59 AM EDT 7:08 PM EDT
Civil Twilight 6:34 AM EDT 7:33 PM EDT
Nautical Twilight 6:04 AM EDT 8:03 PM EDT
Astronomical Twilight 5:34 AM EDT 8:33 PM EDT
Moon 9:04 PM EDT (9/22) 10:10 AM EDT (9/22)
Length of Visible Light 12h 59m
Length of Day
12h 08m
Waning Gibbous, 89% of the Moon is Illuminated
Sep 22
Waning Gibbous
Sep 26
Last Quarter
Oct 4
New
Oct 11
First Quarter
Oct 18
Full

Hourly Weather History & Observations

Time (EDT) Temp. Dew Point Humidity Pressure Visibility Wind Dir Wind Speed Gust Speed Precip Events Conditions
12:53 AM 71.1 °F 70.0 °F 96% 29.74 in 6.0 mi Calm Calm - 0.02 in Rain Light Rain
1:38 AM 71.6 °F 69.8 °F 94% 29.75 in 4.0 mi Calm Calm - 0.03 in Rain Light Rain
1:47 AM 71.6 °F 69.8 °F 94% 29.74 in 3.0 mi Calm Calm - 0.05 in Rain Light Rain
1:51 AM 71.6 °F 69.8 °F 94% 29.74 in 3.0 mi Calm Calm - 0.06 in Rain Light Rain
1:53 AM 71.1 °F 70.0 °F 96% 29.74 in 4.0 mi Calm Calm - 0.06 in Rain Light Rain
2:01 AM 71.6 °F 69.8 °F 94% 29.74 in 4.0 mi South 3.5 mph - 0.01 in Rain Light Rain
2:27 AM 69.8 °F 66.2 °F 88% 29.74 in 4.0 mi NW 10.4 mph 20.7 mph 0.09 in Rain Light Rain
2:34 AM 68.0 °F 66.2 °F 94% 29.75 in 4.0 mi WNW 10.4 mph - 0.11 in Rain Rain
2:45 AM 68.0 °F 66.2 °F 94% 29.74 in 2.5 mi NW 6.9 mph - 0.19 in Rain Rain
2:49 AM 68.0 °F 66.2 °F 94% 29.74 in 4.0 mi NNW 5.8 mph - 0.19 in Rain Light Rain
2:53 AM 68.0 °F 66.0 °F 93% 29.74 in 7.0 mi NNW 5.8 mph - 0.19 in Rain Light Rain
3:23 AM 68.0 °F 66.2 °F 94% 29.74 in 3.0 mi NNW 5.8 mph - 0.10 in Rain Rain
3:53 AM 66.9 °F 66.0 °F 97% 29.73 in 5.0 mi North 3.5 mph - 0.20 in Rain Light Rain
4:34 AM 66.2 °F 66.2 °F 100% 29.73 in 6.0 mi North 4.6 mph - 0.05 in Rain Light Rain
4:53 AM 66.9 °F 66.0 °F 97% 29.73 in 6.0 mi North 5.8 mph - 0.09 in Rain Light Rain
5:20 AM 66.2 °F 64.4 °F 94% 29.72 in 4.0 mi NNE 5.8 mph - 0.09 in Rain Heavy Rain
5:34 AM 66.2 °F 64.4 °F 94% 29.73 in 7.0 mi North 4.6 mph - 0.11 in Rain Light Rain
5:53 AM 66.0 °F 64.0 °F 93% 29.72 in 9.0 mi NNE 4.6 mph - 0.13 in Rain Light Rain
6:12 AM 66.2 °F 64.4 °F 94% 29.72 in 9.0 mi NE 5.8 mph - 0.01 in Rain Light Rain
6:21 AM 66.2 °F 64.4 °F 94% 29.73 in 7.0 mi NE 3.5 mph - 0.02 in Rain Rain
6:33 AM 66.2 °F 64.4 °F 94% 29.73 in 10.0 mi NE 4.6 mph - 0.02 in Rain Light Rain
6:46 AM 66.2 °F 64.4 °F 94% 29.73 in 10.0 mi NNE 9.2 mph - 0.02 in Rain Light Rain
6:53 AM 66.0 °F 64.0 °F 93% 29.74 in 9.0 mi North 6.9 mph - 0.03 in Rain Light Rain
7:27 AM 66.2 °F 64.4 °F 94% 29.74 in 10.0 mi NNE 10.4 mph - 0.01 in   Overcast
7:36 AM 66.2 °F 64.4 °F 94% 29.75 in 10.0 mi NNE 8.1 mph - 0.01 in   Overcast
7:46 AM 66.2 °F 64.4 °F 94% 29.75 in 10.0 mi North 10.4 mph - 0.01 in   Overcast
7:53 AM 66.0 °F 64.9 °F 96% 29.75 in 10.0 mi North 12.7 mph - 0.01 in   Overcast
8:44 AM 66.2 °F 64.4 °F 94% 29.77 in 10.0 mi NNE 12.7 mph - N/A   Overcast
8:53 AM 66.0 °F 63.0 °F 90% 29.77 in 10.0 mi NNE 17.3 mph 21.9 mph N/A   Overcast
9:53 AM 68.0 °F 63.0 °F 84% 29.79 in 10.0 mi NE 12.7 mph 20.7 mph N/A   Overcast
10:36 AM 69.8 °F 62.6 °F 78% 29.79 in 10.0 mi NNE 12.7 mph - N/A   Overcast
10:53 AM 70.0 °F 62.1 °F 76% 29.80 in 10.0 mi NNE 15.0 mph - N/A   Overcast
11:53 AM 73.9 °F 62.1 °F 66% 29.79 in 10.0 mi NNE 10.4 mph 23.0 mph N/A   Overcast
12:53 PM 75.9 °F 62.1 °F 62% 29.79 in 10.0 mi North 15.0 mph 24.2 mph N/A   Mostly Cloudy
1:27 PM 73.4 °F 60.8 °F 65% 29.79 in 10.0 mi NE 11.5 mph - N/A   Mostly Cloudy
1:53 PM 77.0 °F 61.0 °F 58% 29.78 in 10.0 mi NNE 12.7 mph 23.0 mph N/A   Scattered Clouds
2:53 PM 78.1 °F 59.0 °F 52% 29.77 in 10.0 mi NNE 13.8 mph - N/A   Mostly Cloudy
3:53 PM 79.0 °F 57.9 °F 48% 29.77 in 10.0 mi North 13.8 mph - N/A   Partly Cloudy
4:53 PM 75.9 °F 57.9 °F 54% 29.77 in 10.0 mi North 9.2 mph - N/A   Mostly Cloudy
5:53 PM 77.0 °F 57.0 °F 50% 29.79 in 10.0 mi North 12.7 mph - N/A   Overcast
6:53 PM 71.1 °F 57.9 °F 63% 29.81 in 10.0 mi NNE 6.9 mph - N/A   Scattered Clouds
7:53 PM 66.9 °F 60.1 °F 79% 29.83 in 10.0 mi NNE 4.6 mph - N/A   Mostly Cloudy
8:53 PM 68.0 °F 57.9 °F 70% 29.85 in 10.0 mi North 8.1 mph - N/A   Mostly Cloudy
9:53 PM 63.0 °F 55.9 °F 78% 29.86 in - NNE 6.9 mph - N/A   Clear
10:53 PM 61.0 °F 55.9 °F 83% 29.88 in 10.0 mi NE 3.5 mph - N/A   Clear
11:53 PM 60.1 °F 55.9 °F 86% 29.90 in 10.0 mi NE 3.5 mph - N/A   Clear